Portada
METAR-TAF:

METAR-TAF

Aeropuertos :

Jacksonville Municipal Airport

Jacksonville, Illinois, Estados Unidos

latitud: 39-46-27N, longitud: 090-14-19W, altitud: 190 m

Observación

El informe se hizo hace 20 minutos, a las 07:55 UTC
Viento calma
Temperatura 13°C
Humedad 82%
Presión 1024 hPa
Visibilidad: 16.1 km
Cielo despejado

METAR: KIJX 310755Z AUTO 00000KT 10SM CLR 13/10 A3024 RMK AO2 T01250101

Hora: 03:15 (08:15 UTC)


TAF: falta

Observaciones y pronósticos meteorológicos de más de 4000 aeropuertos (mensajes METAR y TAF).

Los puntos amarillos y rojos representan las estaciones disponibles.

Ponga el ratón en el punto deseado para ver el nombre de la estación.

Haga clic para ver las observaciones y los pronósticos meteorológicos.

Para cambiar el mapa : haga clic en los botones verdes con una cruz de color negro para hacer un zoom, en el botón verde con un guión para alejar o en las flechas verdes para mapas adyacentes.


METAR-TAF: